Home   Weather   Gröbming   Past weeks
Flag for Austria

Past Weather in Gröbming, Styria, Austria — Yesterday and Last 2 Weeks

Now
40 °F

Fog.


Feels Like: 40 °F
Forecast: 71 / 46 °F
Wind: 1 mph from North

Location: Aigen Im Ennstal

Current Time: Oct 22, 2019 at 9:03:47 am

Latest Report: Oct 22, 2019 at 8:00 am


Visibility: 0 mi

Pressure: 30.34 "Hg (27.60 "Hg at 769m altitude)

Humidity: 99%

Dew Point: 40 °F

Location of GröbmingLocation

Past Weather in Gröbming — Graph

°F

Gröbming Temperature Yesterday

Maximum temperature yesterday: 69 °F (at 3:00 pm)
Minimum temperature yesterday: 46 °F (at 3:00 am)
Average temperature yesterday: 53 °F

High & Low Weather Summary for the Past Weeks

 TemperatureHumidityPressure
High74 °F (Oct 15, 4:00 pm)99% (Oct 9, 3:00 am)30.36 "Hg (Oct 9, 3:00 am)
Low34 °F (Oct 13, 7:00 am)35% (Oct 15, 4:00 pm)29.68 "Hg (Oct 15, 5:00 pm)
Average49 °F86%30.08 "Hg
* Reported Oct 7 7:00 am — Oct 22 7:00 am, Gröbming. Weather by CustomWeather, © 2019

Note: Actual official high and low records may vary slightly from our data, if they occured in-between our weather recording intervals... More about our weather records

Advertising

Gröbming Weather History for the Previous 24 Hours

Scroll right to see more
 ConditionsComfort  
Time TempWeatherWind HumidityBarometerVisibility
7:00 am
Tue, Oct 22
40 °FFog.1 mph98%30.32 "Hg0 mi
6:00 am40 °FChilly.No wind99%30.32 "HgN/A
5:00 am42 °FFog.1 mph98%30.28 "Hg1 mi
4:00 am42 °FQuite cool.No wind99%30.28 "HgN/A
3:00 am44 °FQuite cool.1 mph99%30.27 "HgN/A
1:00 am47 °FCool.No wind97%30.24 "HgN/A
12:00 am47 °FCool.No wind97%30.22 "HgN/A
11:00 pm
Mon, Oct 21
48 °FFog.No wind96%30.21 "Hg12 mi
10:00 pm50 °FCool.1 mph94%30.20 "HgN/A
9:00 pm52 °FCool.1 mph95%30.18 "HgN/A
8:00 pm54 °FPassing clouds.1 mph86%30.15 "Hg19 mi
7:00 pm58 °FCool.1 mph82%30.12 "HgN/A
6:00 pm63 °FMild.1 mph73%30.08 "HgN/A
3:00 pm69 °FMild.1 mph54%30.05 "HgN/A
2:00 pm67 °FPartly sunny.1 mph61%30.06 "Hg25 mi
1:00 pm64 °FMild.1 mph64%30.09 "HgN/A
12:00 pm62 °FMild.1 mph69%30.11 "HgN/A
11:00 am57 °FPartly sunny.1 mph76%30.13 "Hg25 mi
10:00 am52 °FCool.2 mph87%30.16 "HgN/A
9:00 am46 °FCool.1 mph95%30.17 "HgN/A
Weather by CustomWeather, © 2019

See weather overview